Time,TemperatureF,DewpointF,PressureIn,WindDirection,WindDirectionDegrees,WindSpeedMPH,WindSpeedGustMPH,Humidity,HourlyPrecipIn,Conditions,Clouds,dailyrainin,SoftwareType,DateUTC
2015-08-29 00:02:00,48.0,29.0,29.56,NNE,14,4.0,10.0,47,-99.99,,,-99.99,,2015-08-29 08:02:00,
2015-08-29 00:12:00,48.0,29.0,29.56,NNE,12,6.0,12.0,48,-99.99,,,-99.99,,2015-08-29 08:12:00,
2015-08-29 00:23:00,47.0,28.0,29.56,North,352,3.0,10.0,48,-99.99,,,-99.99,,2015-08-29 08:23:00,
2015-08-29 00:33:00,47.0,29.0,29.56,North,2,6.0,13.0,49,-99.99,,,-99.99,,2015-08-29 08:33:00,
2015-08-29 00:43:00,47.0,29.0,29.55,North,357,7.0,10.0,50,-99.99,,,-99.99,,2015-08-29 08:43:00,
2015-08-29 00:53:00,47.0,29.0,29.55,North,0,6.0,11.0,50,-99.99,,,-99.99,,2015-08-29 08:53:00,
2015-08-29 01:03:00,47.0,29.0,29.54,North,355,6.0,13.0,50,-99.99,,,-99.99,,2015-08-29 09:03:00,
2015-08-29 01:12:00,47.0,29.0,29.54,NNE,29,5.0,11.0,50,-99.99,,,-99.99,,2015-08-29 09:12:00,
2015-08-29 01:22:00,46.0,29.0,29.54,North,3,5.0,8.0,51,-99.99,,,-99.99,,2015-08-29 09:22:00,
2015-08-29 01:33:00,46.0,29.0,29.54,NNE,20,7.0,12.0,52,-99.99,,,-99.99,,2015-08-29 09:33:00,
2015-08-29 01:43:00,46.0,29.0,29.53,North,4,6.0,9.0,52,-99.99,,,-99.99,,2015-08-29 09:43:00,
2015-08-29 01:53:00,46.0,29.0,29.53,North,9,6.0,12.0,52,-99.99,,,-99.99,,2015-08-29 09:53:00,
2015-08-29 02:03:00,45.0,29.0,29.53,North,8,5.0,8.0,53,-99.99,,,-99.99,,2015-08-29 10:03:00,
2015-08-29 02:23:00,45.0,29.0,29.52,North,4,6.0,11.0,53,-99.99,,,-99.99,,2015-08-29 10:23:00,
2015-08-29 02:33:00,45.0,29.0,29.51,NNE,18,8.0,13.0,53,-99.99,,,-99.99,,2015-08-29 10:33:00,
2015-08-29 02:43:00,45.0,29.0,29.51,NNE,12,8.0,16.0,53,-99.99,,,-99.99,,2015-08-29 10:43:00,
2015-08-29 02:53:00,45.0,29.0,29.51,North,359,5.0,12.0,53,-99.99,,,-99.99,,2015-08-29 10:53:00,
2015-08-29 03:03:00,45.0,29.0,29.50,NNE,23,10.0,14.0,53,-99.99,,,-99.99,,2015-08-29 11:03:00,
2015-08-29 03:13:00,45.0,29.0,29.49,NNE,32,8.0,12.0,53,-99.99,,,-99.99,,2015-08-29 11:13:00,
2015-08-29 03:23:00,44.0,28.0,29.49,North,10,8.0,13.0,53,-99.99,,,-99.99,,2015-08-29 11:23:00,
2015-08-29 03:33:00,44.0,28.0,29.49,NE,44,6.0,14.0,53,-99.99,,,-99.99,,2015-08-29 11:33:00,
2015-08-29 03:43:00,44.0,28.0,29.49,NNE,31,5.0,14.0,54,-99.99,,,-99.99,,2015-08-29 11:43:00,
2015-08-29 03:53:00,44.0,28.0,29.49,NNE,20,11.0,13.0,53,-99.99,,,-99.99,,2015-08-29 11:53:00,
2015-08-29 04:03:00,44.0,28.0,29.48,NNE,17,8.0,16.0,53,-99.99,,,-99.99,,2015-08-29 12:03:00,
2015-08-29 04:13:00,44.0,28.0,29.48,NNE,28,9.0,18.0,53,-99.99,,,-99.99,,2015-08-29 12:13:00,
2015-08-29 04:23:00,44.0,28.0,29.48,NE,37,5.0,13.0,54,-99.99,,,-99.99,,2015-08-29 12:23:00,
2015-08-29 04:34:00,44.0,28.0,29.48,NE,35,7.0,10.0,54,-99.99,,,-99.99,,2015-08-29 12:34:00,
2015-08-29 04:43:00,44.0,28.0,29.46,North,8,9.0,12.0,54,-99.99,,,-99.99,,2015-08-29 12:43:00,
2015-08-29 04:54:00,44.0,28.0,29.46,North,4,7.0,15.0,53,-99.99,,,-99.99,,2015-08-29 12:54:00,